Time,TemperatureF,DewpointF,PressureIn,WindDirection,WindDirectionDegrees,WindSpeedMPH,WindSpeedGustMPH,Humidity,HourlyPrecipIn,Conditions,Clouds,dailyrainin,SoftwareType,DateUTC
2013-01-21 00:03:00,9.5,-1.3,30.14,West,261,9.0,20.0,61,0.00,SN,SN,0.00,WeatherDisplay:10.37,2013-01-21 06:03:00,
2013-01-21 00:13:00,9.5,-0.9,30.13,West,277,9.0,18.0,62,0.00,SN,SN,0.00,WeatherDisplay:10.37,2013-01-21 06:13:00,
2013-01-21 00:23:00,9.5,-0.9,30.13,WNW,283,7.0,17.0,62,0.00,SN,SN,0.00,WeatherDisplay:10.37,2013-01-21 06:23:00,
2013-01-21 00:33:00,9.5,-0.9,30.13,West,269,8.0,15.0,62,0.00,SN,SN,0.00,WeatherDisplay:10.37,2013-01-21 06:33:00,
2013-01-21 00:43:00,9.3,-0.7,30.12,West,276,9.0,17.0,63,0.00,SN,SN,0.00,WeatherDisplay:10.37,2013-01-21 06:43:00,
2013-01-21 00:53:00,9.2,-0.9,30.12,West,269,8.0,16.0,63,0.00,SN,SN,0.00,WeatherDisplay:10.37,2013-01-21 06:53:00,
2013-01-21 01:03:00,9.0,-1.4,30.12,West,271,10.0,16.0,62,0.00,SN,SN,0.00,WeatherDisplay:10.37,2013-01-21 07:03:00,
2013-01-21 01:13:00,8.8,-1.3,30.12,West,281,8.0,22.0,63,0.00,SN,SN,0.00,WeatherDisplay:10.37,2013-01-21 07:13:00,
2013-01-21 01:23:00,8.5,-1.5,30.12,West,270,14.0,21.0,63,0.00,SN,SN,0.00,WeatherDisplay:10.37,2013-01-21 07:23:00,
2013-01-21 01:33:00,8.2,-1.1,30.13,West,268,10.0,18.0,65,0.00,SN,SN,0.00,WeatherDisplay:10.37,2013-01-21 07:33:00,
2013-01-21 01:43:00,8.2,-0.5,30.12,WSW,257,12.0,25.0,67,0.00,SN,SN,0.00,WeatherDisplay:10.37,2013-01-21 07:43:00,
2013-01-21 01:53:00,7.7,0.2,30.13,West,266,8.0,17.0,71,0.00,SN,SN,0.00,WeatherDisplay:10.37,2013-01-21 07:53:00,
2013-01-21 02:03:00,7.5,0.1,30.12,West,263,12.0,20.0,71,0.00,SN,SN,0.00,WeatherDisplay:10.37,2013-01-21 08:03:00,
2013-01-21 02:13:00,7.3,-2.7,30.13,West,270,8.0,28.0,63,0.00,SN,SN,0.00,WeatherDisplay:10.37,2013-01-21 08:13:00,
2013-01-21 02:23:00,7.0,-3.3,30.12,West,274,10.0,20.0,62,0.00,SN,SN,0.00,WeatherDisplay:10.37,2013-01-21 08:23:00,
2013-01-21 02:33:00,6.6,-3.3,30.12,West,273,8.0,20.0,63,0.00,SN,SN,0.00,WeatherDisplay:10.37,2013-01-21 08:33:00,
2013-01-21 02:43:00,6.3,-3.3,30.12,West,277,6.0,22.0,64,0.00,SN,SN,0.00,WeatherDisplay:10.37,2013-01-21 08:43:00,
2013-01-21 02:53:00,5.9,-3.3,30.12,West,273,8.0,22.0,65,0.00,SN,SN,0.00,WeatherDisplay:10.37,2013-01-21 08:53:00,
2013-01-21 03:03:00,5.5,-4.0,30.12,West,276,7.0,14.0,64,0.00,SN,SN,0.00,WeatherDisplay:10.37,2013-01-21 09:03:00,
2013-01-21 03:13:00,5.4,-4.1,30.11,West,280,6.0,13.0,64,0.00,SN,SN,0.00,WeatherDisplay:10.37,2013-01-21 09:13:00,
2013-01-21 03:23:00,5.4,-3.9,30.11,WNW,286,3.0,9.0,65,0.00,SN,SN,0.00,WeatherDisplay:10.37,2013-01-21 09:23:00,
2013-01-21 03:33:00,5.2,-3.4,30.11,West,277,3.0,9.0,67,0.00,SN,SN,0.00,WeatherDisplay:10.37,2013-01-21 09:33:00,
2013-01-21 03:43:00,5.2,-3.4,30.11,West,280,5.0,10.0,67,0.00,SN,SN,0.00,WeatherDisplay:10.37,2013-01-21 09:43:00,
2013-01-21 03:53:00,5.2,-3.4,30.10,West,270,3.0,10.0,67,0.00,SN,SN,0.00,WeatherDisplay:10.37,2013-01-21 09:53:00,
2013-01-21 04:03:00,5.2,-3.4,30.10,West,274,5.0,15.0,67,0.00,SN,SN,0.00,WeatherDisplay:10.37,2013-01-21 10:03:00,
2013-01-21 04:13:00,5.2,-3.1,30.10,West,268,6.0,10.0,68,0.00,SN,SN,0.00,WeatherDisplay:10.37,2013-01-21 10:13:00,
2013-01-21 04:23:00,5.0,-3.0,30.10,West,271,7.0,13.0,69,0.00,SN,SN,0.00,WeatherDisplay:10.37,2013-01-21 10:23:00,
2013-01-21 04:33:00,5.0,-2.4,30.10,West,268,5.0,10.0,71,0.00,SN,SN,0.00,WeatherDisplay:10.37,2013-01-21 10:33:00,
2013-01-21 04:43:00,4.9,-2.4,30.10,West,263,7.0,14.0,71,0.00,SN,SN,0.00,WeatherDisplay:10.37,2013-01-21 10:43:00,
2013-01-21 04:53:00,4.8,-2.5,30.10,WSW,253,7.0,18.0,71,0.00,SN,SN,0.00,WeatherDisplay:10.37,2013-01-21 10:53:00,
2013-01-21 05:03:00,4.8,-1.9,30.09,WSW,258,10.0,22.0,73,0.00,SN,SN,0.00,WeatherDisplay:10.37,2013-01-21 11:03:00,
2013-01-21 05:13:00,4.8,-1.4,30.10,West,260,6.0,16.0,75,0.00,SN,SN,0.00,WeatherDisplay:10.37,2013-01-21 11:13:00,
2013-01-21 05:23:00,4.6,-0.4,30.09,West,279,6.0,17.0,79,0.00,SN,SN,0.00,WeatherDisplay:10.37,2013-01-21 11:23:00,
2013-01-21 05:33:00,4.5,0.4,30.10,West,278,10.0,18.0,83,0.00,SN,SN,0.00,WeatherDisplay:10.37,2013-01-21 11:33:00,
2013-01-21 05:43:00,4.0,0.0,30.10,West,280,12.0,21.0,83,0.00,SN,SN,0.00,WeatherDisplay:10.37,2013-01-21 11:43:00,
2013-01-21 05:53:00,3.2,-2.4,30.10,West,277,13.0,24.0,77,0.00,SN,SN,0.00,WeatherDisplay:10.37,2013-01-21 11:53:00,
2013-01-21 06:03:00,3.0,-3.1,30.10,West,278,12.0,21.0,75,0.00,SN,SN,0.00,WeatherDisplay:10.37,2013-01-21 12:03:00,
2013-01-21 06:13:00,2.5,-4.2,30.11,WNW,282,12.0,24.0,73,0.00,SN,SN,0.00,WeatherDisplay:10.37,2013-01-21 12:13:00,
2013-01-21 06:23:00,2.1,-5.1,30.11,WNW,291,10.0,24.0,71,0.00,SN,SN,0.00,WeatherDisplay:10.37,2013-01-21 12:23:00,
2013-01-21 06:33:00,1.8,-5.5,30.11,WNW,290,13.0,20.0,71,0.00,SN,SN,0.00,WeatherDisplay:10.37,2013-01-21 12:33:00,
2013-01-21 06:43:00,1.4,-5.8,30.11,West,276,10.0,18.0,71,0.00,SN,SN,0.00,WeatherDisplay:10.37,2013-01-21 12:43:00,
2013-01-21 06:53:00,1.2,-6.6,30.12,West,275,15.0,24.0,69,0.00,SN,SN,0.00,WeatherDisplay:10.37,2013-01-21 12:53:00,
2013-01-21 07:03:00,1.0,-6.8,30.12,West,277,8.0,16.0,69,0.00,SN,SN,0.00,WeatherDisplay:10.37,2013-01-21 13:03:00,
2013-01-21 07:13:00,0.9,-7.2,30.12,WNW,290,10.0,22.0,68,0.00,SN,SN,0.00,WeatherDisplay:10.37,2013-01-21 13:13:00,
2013-01-21 07:23:00,0.7,-7.7,30.12,West,281,12.0,23.0,67,0.00,SN,SN,0.00,WeatherDisplay:10.37,2013-01-21 13:23:00,
2013-01-21 07:33:00,0.5,-7.6,30.13,WNW,286,10.0,20.0,68,0.00,SN,SN,0.00,WeatherDisplay:10.37,2013-01-21 13:33:00,
2013-01-21 07:43:00,0.3,-7.5,30.13,WNW,282,10.0,29.0,69,0.00,SN,SN,0.00,WeatherDisplay:10.37,2013-01-21 13:43:00,
2013-01-21 07:53:00,0.5,-7.3,30.13,West,279,9.0,17.0,69,0.00,SN,SN,0.00,WeatherDisplay:10.37,2013-01-21 13:53:00,
2013-01-21 08:03:00,0.3,-6.3,30.14,West,272,12.0,21.0,73,0.00,SN,SN,0.00,WeatherDisplay:10.37,2013-01-21 14:03:00,
2013-01-21 08:13:00,0.0,-5.5,30.14,West,275,13.0,26.0,77,0.00,SN,SN,0.00,WeatherDisplay:10.37,2013-01-21 14:13:00,
2013-01-21 08:23:00,-0.2,-6.0,30.14,West,275,12.0,30.0,76,0.00,SN,SN,0.00,WeatherDisplay:10.37,2013-01-21 14:23:00,
2013-01-21 08:33:00,-0.2,-7.7,30.15,West,272,9.0,28.0,70,0.00,SN,SN,0.00,WeatherDisplay:10.37,2013-01-21 14:33:00,
2013-01-21 08:43:00,0.9,-10.1,30.15,West,281,12.0,23.0,59,0.00,SN,SN,0.00,WeatherDisplay:10.37,2013-01-21 14:43:00,
2013-01-21 08:53:00,1.5,-10.2,30.16,WNW,292,10.0,26.0,57,0.00,SN,SN,0.00,WeatherDisplay:10.37,2013-01-21 14:53:00,
2013-01-21 09:03:00,1.6,-10.5,30.16,WNW,285,13.0,30.0,56,0.00,SN,SN,0.00,WeatherDisplay:10.37,2013-01-21 15:03:00,
2013-01-21 09:13:00,2.5,-10.0,30.16,West,263,12.0,25.0,55,0.00,SN,SN,0.00,WeatherDisplay:10.37,2013-01-21 15:13:00,
2013-01-21 09:23:00,2.5,-11.2,30.17,West,267,13.0,21.0,52,0.00,SN,SN,0.00,WeatherDisplay:10.37,2013-01-21 15:23:00,
2013-01-21 09:33:00,1.0,-11.8,30.17,West,277,14.0,24.0,54,0.00,SN,SN,0.00,WeatherDisplay:10.37,2013-01-21 15:33:00,
2013-01-21 09:43:00,0.8,-13.5,30.17,WNW,299,16.0,26.0,50,0.00,SN,SN,0.00,WeatherDisplay:10.37,2013-01-21 15:43:00,
2013-01-21 09:53:00,1.4,-13.0,30.18,NW,309,13.0,25.0,50,0.00,SN,SN,0.00,WeatherDisplay:10.37,2013-01-21 15:53:00,
2013-01-21 10:03:00,2.0,-11.6,30.18,WNW,286,10.0,32.0,52,0.00,SN,SN,0.00,WeatherDisplay:10.37,2013-01-21 16:03:00,
2013-01-21 10:13:00,0.7,-12.9,30.17,WNW,289,13.0,26.0,52,0.00,SN,SN,0.00,WeatherDisplay:10.37,2013-01-21 16:13:00,
2013-01-21 10:23:00,1.1,-12.1,30.17,West,276,12.0,16.0,53,0.00,SN,SN,0.00,WeatherDisplay:10.37,2013-01-21 16:23:00,
2013-01-21 10:33:00,1.9,-12.5,30.17,West,278,14.0,24.0,50,0.00,SN,SN,0.00,WeatherDisplay:10.37,2013-01-21 16:33:00,
2013-01-21 10:43:00,1.4,-12.1,30.18,West,272,12.0,22.0,52,0.00,SN,SN,0.00,WeatherDisplay:10.37,2013-01-21 16:43:00,
2013-01-21 10:53:00,2.5,-10.4,30.18,WNW,283,12.0,20.0,54,0.00,SN,SN,0.00,WeatherDisplay:10.37,2013-01-21 16:53:00,
2013-01-21 11:03:00,2.5,-10.0,30.18,West,270,10.0,24.0,55,0.00,SN,SN,0.00,WeatherDisplay:10.37,2013-01-21 17:03:00,
2013-01-21 11:13:00,3.1,-9.1,30.17,West,276,15.0,26.0,56,0.00,SN,SN,0.00,WeatherDisplay:10.37,2013-01-21 17:13:00,
2013-01-21 11:23:00,2.6,-9.2,30.17,West,265,13.0,24.0,57,0.00,SN,SN,0.00,WeatherDisplay:10.37,2013-01-21 17:23:00,
2013-01-21 11:33:00,3.2,-9.0,30.16,West,278,10.0,23.0,56,0.00,SN,SN,0.00,WeatherDisplay:10.37,2013-01-21 17:33:00,
2013-01-21 11:43:00,2.6,-10.7,30.16,West,277,10.0,20.0,53,0.00,SN,SN,0.00,WeatherDisplay:10.37,2013-01-21 17:43:00,
2013-01-21 11:53:00,2.9,-10.4,30.16,WSW,254,17.0,26.0,53,0.00,SN,SN,0.00,WeatherDisplay:10.37,2013-01-21 17:53:00,
2013-01-21 12:03:00,2.6,-11.1,30.16,West,275,15.0,25.0,52,0.00,SN,SN,0.00,WeatherDisplay:10.37,2013-01-21 18:03:00,
2013-01-21 12:13:00,2.6,-9.9,30.15,West,266,14.0,25.0,55,0.00,SN,SN,0.00,WeatherDisplay:10.37,2013-01-21 18:13:00,
2013-01-21 12:23:00,3.6,-9.4,30.16,West,267,14.0,22.0,54,0.00,SN,SN,0.00,WeatherDisplay:10.37,2013-01-21 18:23:00,
2013-01-21 12:33:00,4.1,-8.9,30.15,West,274,9.0,25.0,54,0.00,SN,SN,0.00,WeatherDisplay:10.37,2013-01-21 18:33:00,
2013-01-21 12:43:00,2.8,-9.7,30.15,West,270,14.0,24.0,55,0.00,SN,SN,0.00,WeatherDisplay:10.37,2013-01-21 18:43:00,
2013-01-21 12:53:00,3.9,-9.4,30.15,West,259,15.0,28.0,53,0.00,SN,SN,0.00,WeatherDisplay:10.37,2013-01-21 18:53:00,
2013-01-21 13:03:00,3.6,-9.4,30.14,WNW,284,10.0,24.0,54,0.00,SN,SN,0.00,WeatherDisplay:10.37,2013-01-21 19:03:00,
2013-01-21 13:13:00,3.9,-9.1,30.14,West,271,14.0,31.0,54,0.00,SN,SN,0.00,WeatherDisplay:10.37,2013-01-21 19:13:00,
2013-01-21 13:23:00,4.1,-8.9,30.14,West,277,10.0,18.0,54,0.00,SN,SN,0.00,WeatherDisplay:10.37,2013-01-21 19:23:00,
2013-01-21 13:33:00,4.0,-9.4,30.15,West,269,12.0,22.0,53,0.00,SN,SN,0.00,WeatherDisplay:10.37,2013-01-21 19:33:00,
2013-01-21 13:43:00,3.7,-9.3,30.14,West,262,12.0,18.0,54,0.00,SN,SN,0.00,WeatherDisplay:10.37,2013-01-21 19:43:00,
2013-01-21 13:53:00,3.9,-9.1,30.14,West,275,13.0,23.0,54,0.00,SN,SN,0.00,WeatherDisplay:10.37,2013-01-21 19:53:00,
2013-01-21 14:13:00,4.3,-9.9,30.14,West,276,14.0,24.0,51,0.00,SN,SN,0.00,WeatherDisplay:10.37,2013-01-21 20:13:00,
2013-01-21 14:23:00,5.1,-10.3,30.14,West,281,13.0,24.0,48,0.00,SN,SN,0.00,WeatherDisplay:10.37,2013-01-21 20:23:00,
2013-01-21 14:33:00,4.5,-10.9,30.14,West,280,13.0,23.0,48,0.00,SN,SN,0.00,WeatherDisplay:10.37,2013-01-21 20:33:00,
2013-01-21 14:43:00,5.5,-9.6,30.14,West,277,8.0,20.0,49,0.00,SN,SN,0.00,WeatherDisplay:10.37,2013-01-21 20:43:00,
2013-01-21 14:53:00,5.8,-9.7,30.14,West,261,10.0,24.0,48,0.00,SN,SN,0.00,WeatherDisplay:10.37,2013-01-21 20:53:00,
2013-01-21 15:03:00,5.2,-10.7,30.15,West,272,9.0,22.0,47,0.00,SN,SN,0.00,WeatherDisplay:10.37,2013-01-21 21:03:00,
2013-01-21 15:13:00,5.6,-10.3,30.15,West,272,12.0,30.0,47,0.00,SN,SN,0.00,WeatherDisplay:10.37,2013-01-21 21:13:00,
2013-01-21 15:23:00,5.1,-10.7,30.15,West,263,14.0,31.0,47,0.00,SN,SN,0.00,WeatherDisplay:10.37,2013-01-21 21:23:00,
2013-01-21 15:33:00,4.4,-11.5,30.16,West,280,13.0,31.0,47,0.00,SN,SN,0.00,WeatherDisplay:10.37,2013-01-21 21:33:00,
2013-01-21 15:43:00,2.8,-12.0,30.16,West,277,13.0,25.0,49,0.00,SN,SN,0.00,WeatherDisplay:10.37,2013-01-21 21:43:00,
2013-01-21 15:53:00,3.8,-11.6,30.16,West,265,9.0,20.0,48,0.00,SN,SN,0.00,WeatherDisplay:10.37,2013-01-21 21:53:00,
2013-01-21 16:03:00,3.9,-11.9,30.16,West,264,14.0,30.0,47,0.00,SN,SN,0.00,WeatherDisplay:10.37,2013-01-21 22:03:00,
2013-01-21 16:13:00,3.0,-12.3,30.16,WNW,288,12.0,25.0,48,0.00,SN,SN,0.00,WeatherDisplay:10.37,2013-01-21 22:13:00,
2013-01-21 16:23:00,2.5,-11.6,30.16,West,266,16.0,22.0,51,0.00,SN,SN,0.00,WeatherDisplay:10.37,2013-01-21 22:23:00,
2013-01-21 16:33:00,1.7,-11.9,30.16,WNW,285,13.0,22.0,52,0.00,SN,SN,0.00,WeatherDisplay:10.37,2013-01-21 22:33:00,
2013-01-21 16:43:00,1.4,-11.4,30.16,West,267,10.0,20.0,54,0.00,SN,SN,0.00,WeatherDisplay:10.37,2013-01-21 22:43:00,
2013-01-21 16:53:00,0.9,-11.9,30.17,West,276,8.0,23.0,54,0.00,SN,SN,0.00,WeatherDisplay:10.37,2013-01-21 22:53:00,
2013-01-21 17:03:00,0.5,-11.9,30.17,West,272,8.0,20.0,55,0.00,SN,SN,0.00,WeatherDisplay:10.37,2013-01-21 23:03:00,
2013-01-21 17:13:00,0.5,-11.2,30.17,West,275,15.0,28.0,57,0.00,SN,SN,0.00,WeatherDisplay:10.37,2013-01-21 23:13:00,
2013-01-21 17:23:00,0.5,-10.8,30.17,West,272,9.0,16.0,58,0.00,SN,SN,0.00,WeatherDisplay:10.37,2013-01-21 23:23:00,
2013-01-21 17:33:00,0.3,-11.3,30.17,West,278,10.0,26.0,57,0.00,SN,SN,0.00,WeatherDisplay:10.37,2013-01-21 23:33:00,
2013-01-21 17:43:00,0.1,-11.5,30.17,West,273,10.0,15.0,57,0.00,SN,SN,0.00,WeatherDisplay:10.37,2013-01-21 23:43:00,
2013-01-21 17:53:00,0.2,-11.1,30.18,West,274,12.0,18.0,58,0.00,SN,SN,0.00,WeatherDisplay:10.37,2013-01-21 23:53:00,
2013-01-21 18:03:00,0.3,-11.0,30.17,West,272,7.0,24.0,58,0.00,SN,SN,0.00,WeatherDisplay:10.37,2013-01-22 00:03:00,
2013-01-21 18:13:00,0.1,-11.2,30.18,West,269,8.0,14.0,58,0.00,SN,SN,0.00,WeatherDisplay:10.37,2013-01-22 00:13:00,
2013-01-21 18:23:00,0.1,-11.2,30.18,West,272,10.0,21.0,58,0.00,SN,SN,0.00,WeatherDisplay:10.37,2013-01-22 00:23:00,
2013-01-21 18:33:00,0.0,-11.3,30.18,West,276,13.0,18.0,58,0.00,SN,SN,0.00,WeatherDisplay:10.37,2013-01-22 00:33:00,
2013-01-21 18:43:00,0.0,-11.3,30.18,West,274,8.0,20.0,58,0.00,SN,SN,0.00,WeatherDisplay:10.37,2013-01-22 00:43:00,
2013-01-21 18:53:00,-0.2,-11.1,30.19,West,269,6.0,18.0,59,0.00,SN,SN,0.00,WeatherDisplay:10.37,2013-01-22 00:53:00,
2013-01-21 19:03:00,-0.2,-11.2,30.19,West,277,7.0,13.0,59,0.00,SN,SN,0.00,WeatherDisplay:10.37,2013-01-22 01:03:00,
2013-01-21 19:13:00,-0.2,-11.2,30.19,West,274,8.0,15.0,59,0.00,SN,SN,0.00,WeatherDisplay:10.37,2013-01-22 01:13:00,
2013-01-21 19:23:00,-0.2,-11.2,30.19,West,270,7.0,16.0,59,0.00,SN,SN,0.00,WeatherDisplay:10.37,2013-01-22 01:23:00,
2013-01-21 19:33:00,-0.4,-11.0,30.19,West,273,6.0,15.0,60,0.00,SN,SN,0.00,WeatherDisplay:10.37,2013-01-22 01:33:00,
2013-01-21 19:43:00,-0.5,-11.4,30.20,West,278,8.0,20.0,59,0.00,SN,SN,0.00,WeatherDisplay:10.37,2013-01-22 01:43:00,
2013-01-21 19:53:00,-0.6,-11.5,30.20,West,272,9.0,14.0,59,0.00,SN,SN,0.00,WeatherDisplay:10.37,2013-01-22 01:53:00,
2013-01-21 20:03:00,-0.6,-11.5,30.20,West,280,7.0,22.0,59,0.00,SN,SN,0.00,WeatherDisplay:10.37,2013-01-22 02:03:00,
2013-01-21 20:13:00,-0.9,-11.8,30.20,West,279,9.0,24.0,59,0.00,SN,SN,0.00,WeatherDisplay:10.37,2013-01-22 02:13:00,
2013-01-21 20:23:00,-0.9,-11.5,30.20,West,268,12.0,21.0,60,0.00,SN,SN,0.00,WeatherDisplay:10.37,2013-01-22 02:23:00,
2013-01-21 20:33:00,-1.1,-11.7,30.20,West,273,10.0,18.0,60,0.00,SN,SN,0.00,WeatherDisplay:10.37,2013-01-22 02:33:00,
2013-01-21 20:43:00,-1.1,-11.3,30.20,WNW,293,10.0,18.0,61,0.00,SN,SN,0.00,WeatherDisplay:10.37,2013-01-22 02:43:00,
2013-01-21 20:53:00,-1.3,-11.1,30.21,West,279,5.0,12.0,62,0.00,SN,SN,0.00,WeatherDisplay:10.37,2013-01-22 02:53:00,
2013-01-21 21:03:00,-1.3,-11.2,30.21,West,275,7.0,16.0,62,0.00,SN,SN,0.00,WeatherDisplay:10.37,2013-01-22 03:03:00,
2013-01-21 21:13:00,-1.5,-11.4,30.21,West,281,8.0,15.0,62,0.00,SN,SN,0.00,WeatherDisplay:10.37,2013-01-22 03:13:00,
2013-01-21 21:23:00,-1.5,-11.4,30.22,West,278,9.0,16.0,62,0.00,SN,SN,0.00,WeatherDisplay:10.37,2013-01-22 03:23:00,
2013-01-21 21:33:00,-1.5,-11.0,30.21,West,278,5.0,15.0,63,0.00,SN,SN,0.00,WeatherDisplay:10.37,2013-01-22 03:33:00,
2013-01-21 21:43:00,-1.7,-11.2,30.22,WNW,283,7.0,22.0,63,0.00,SN,SN,0.00,WeatherDisplay:10.37,2013-01-22 03:43:00,
2013-01-21 21:53:00,-1.7,-10.9,30.22,WNW,285,10.0,20.0,64,0.00,SN,SN,0.00,WeatherDisplay:10.37,2013-01-22 03:53:00,
2013-01-21 22:03:00,-1.7,-10.9,30.23,WNW,299,7.0,23.0,64,0.00,SN,SN,0.00,WeatherDisplay:10.37,2013-01-22 04:03:00,
2013-01-21 22:23:00,-1.8,-9.8,30.23,WNW,290,7.0,12.0,68,0.00,SN,SN,0.00,WeatherDisplay:10.37,2013-01-22 04:23:00,
2013-01-21 22:33:00,-2.0,-9.7,30.20,WNW,296,7.0,18.0,69,0.00,SN,SN,0.00,WeatherDisplay:10.37,2013-01-22 04:33:00,
2013-01-21 22:43:00,-2.6,-9.1,30.23,NW,308,10.0,18.0,73,0.00,SN,SN,0.00,WeatherDisplay:10.37,2013-01-22 04:43:00,
2013-01-21 22:53:00,-2.7,-9.3,30.24,WNW,302,7.0,16.0,73,0.00,SN,SN,0.00,WeatherDisplay:10.37,2013-01-22 04:53:00,
2013-01-21 23:03:00,-2.7,-9.8,30.23,WNW,302,5.0,13.0,71,0.00,SN,SN,0.00,WeatherDisplay:10.37,2013-01-22 05:03:00,
2013-01-21 23:13:00,-2.9,-10.6,30.24,NW,304,5.0,15.0,69,0.00,SN,SN,0.00,WeatherDisplay:10.37,2013-01-22 05:13:00,
2013-01-21 23:23:00,-3.1,-10.7,30.24,WNW,302,5.0,12.0,69,0.00,SN,SN,0.00,WeatherDisplay:10.37,2013-01-22 05:23:00,
2013-01-21 23:33:00,-3.3,-11.2,30.24,NW,312,9.0,18.0,68,0.00,SN,SN,0.00,WeatherDisplay:10.37,2013-01-22 05:33:00,
2013-01-21 23:43:00,-3.5,-11.7,30.24,WNW,302,6.0,15.0,67,0.00,SN,SN,0.00,WeatherDisplay:10.37,2013-01-22 05:43:00,
2013-01-21 23:53:00,-3.6,-11.9,30.24,NW,305,7.0,14.0,67,0.00,SN,SN,0.00,WeatherDisplay:10.37,2013-01-22 05:53:00,